Location: B?dargowo
(53.3916°N, 14.4413°E)
Time: 09:45:03
(UTC+00:00)

CZ-4 R/B - Pass Details

Date: 05 February 2023
Orbit: 525 x 588 km, 97.7° (Epoch: 19 March)

Event Time Altitude Azimuth Distance (km) Brightness Sun altitude
Rises 17:58:51 0° 166° (SSE) 2,794 4.8 -19.0°
Reaches altitude 10° 18:01:01 10° 167° (SSE) 1,891 3.9 -19.3°
Maximum altitude 18:05:08 83° 256° (WSW) 584 1.4 -19.9°
Drops below altitude 10° 18:09:12 10° 344° (NNW) 1,871 4.2 -20.5°
Sets 18:11:19 0° 346° (NNW) 2,761 5.1 -20.8°
